Time,TemperatureF,DewpointF,PressureIn,WindDirection,WindDirectionDegrees,WindSpeedMPH,WindSpeedGustMPH,Humidity,HourlyPrecipIn,Conditions,Clouds,dailyrainin,SoftwareType,DateUTC
2013-02-13 00:00:00,11.0,-99.9,-100.00,West,281,6.0,14.0,-999,-99.99,,,-99.99,,2013-02-13 07:00:00,
2013-02-13 00:32:00,11.0,-99.9,-100.00,West,281,6.0,14.0,-999,-99.99,,,-99.99,,2013-02-13 07:32:00,
2013-02-13 00:42:00,11.0,-99.9,-100.00,West,281,6.0,14.0,-999,-99.99,,,-99.99,,2013-02-13 07:42:00,
2013-02-13 00:52:00,11.0,-99.9,-100.00,West,281,6.0,14.0,-999,-99.99,,,-99.99,,2013-02-13 07:52:00,
2013-02-13 04:00:00,11.0,-99.9,-100.00,West,267,4.0,9.0,-999,-99.99,,,-99.99,,2013-02-13 11:00:00,
2013-02-13 04:32:00,11.0,-99.9,-100.00,West,267,4.0,9.0,-999,-99.99,,,-99.99,,2013-02-13 11:32:00,
2013-02-13 04:42:00,11.0,-99.9,-100.00,West,267,4.0,9.0,-999,-99.99,,,-99.99,,2013-02-13 11:42:00,
2013-02-13 04:52:00,11.0,-99.9,-100.00,West,267,4.0,9.0,-999,-99.99,,,-99.99,,2013-02-13 11:52:00,
2013-02-13 06:00:00,14.0,-99.9,-100.00,WNW,295,13.0,20.0,-999,-99.99,,,-99.99,,2013-02-13 13:00:00,
2013-02-13 06:32:00,14.0,-99.9,-100.00,WNW,295,13.0,20.0,-999,-99.99,,,-99.99,,2013-02-13 13:32:00,
2013-02-13 06:42:00,14.0,-99.9,-100.00,WNW,295,13.0,20.0,-999,-99.99,,,-99.99,,2013-02-13 13:42:00,
2013-02-13 06:52:00,14.0,-99.9,-100.00,WNW,295,13.0,20.0,-999,-99.99,,,-99.99,,2013-02-13 13:52:00,
2013-02-13 08:00:00,14.0,-99.9,-100.00,West,269,9.0,15.0,-999,-99.99,,,-99.99,,2013-02-13 15:00:00,
2013-02-13 08:32:00,14.0,-99.9,-100.00,West,269,9.0,15.0,-999,-99.99,,,-99.99,,2013-02-13 15:32:00,
2013-02-13 08:42:00,14.0,-99.9,-100.00,West,269,9.0,15.0,-999,-99.99,,,-99.99,,2013-02-13 15:42:00,
2013-02-13 08:52:00,14.0,-99.9,-100.00,West,269,9.0,15.0,-999,-99.99,,,-99.99,,2013-02-13 15:52:00,
2013-02-13 10:00:00,16.0,-99.9,-100.00,West,276,6.0,16.0,-999,-99.99,,,-99.99,,2013-02-13 17:00:00,
2013-02-13 10:32:00,16.0,-99.9,-100.00,West,276,6.0,16.0,-999,-99.99,,,-99.99,,2013-02-13 17:32:00,
2013-02-13 10:42:00,16.0,-99.9,-100.00,West,276,6.0,16.0,-999,-99.99,,,-99.99,,2013-02-13 17:42:00,
2013-02-13 10:52:00,16.0,-99.9,-100.00,West,276,6.0,16.0,-999,-99.99,,,-99.99,,2013-02-13 17:52:00,
2013-02-13 12:00:00,20.0,-99.9,-100.00,West,274,6.0,19.0,-999,-99.99,,,-99.99,,2013-02-13 19:00:00,
2013-02-13 12:32:00,20.0,-99.9,-100.00,West,274,6.0,19.0,-999,-99.99,,,-99.99,,2013-02-13 19:32:00,
2013-02-13 12:42:00,20.0,-99.9,-100.00,West,274,6.0,19.0,-999,-99.99,,,-99.99,,2013-02-13 19:42:00,
2013-02-13 12:52:00,20.0,-99.9,-100.00,West,274,6.0,19.0,-999,-99.99,,,-99.99,,2013-02-13 19:52:00,
2013-02-13 14:00:00,19.0,-99.9,-100.00,West,272,7.0,25.0,-999,-99.99,,,-99.99,,2013-02-13 21:00:00,
2013-02-13 14:32:00,19.0,-99.9,-100.00,West,272,7.0,25.0,-999,-99.99,,,-99.99,,2013-02-13 21:32:00,
2013-02-13 14:43:00,19.0,-99.9,-100.00,West,272,7.0,25.0,-999,-99.99,,,-99.99,,2013-02-13 21:43:00,
2013-02-13 14:52:00,19.0,-99.9,-100.00,West,272,7.0,25.0,-999,-99.99,,,-99.99,,2013-02-13 21:52:00,
2013-02-13 16:00:00,17.0,-99.9,-100.00,West,270,10.0,28.0,-999,-99.99,,,-99.99,,2013-02-13 23:00:00,
2013-02-13 16:32:00,17.0,-99.9,-100.00,West,270,10.0,28.0,-999,-99.99,,,-99.99,,2013-02-13 23:32:00,
2013-02-13 16:42:00,17.0,-99.9,-100.00,West,270,10.0,28.0,-999,-99.99,,,-99.99,,2013-02-13 23:42:00,
2013-02-13 16:53:00,17.0,-99.9,-100.00,West,270,10.0,28.0,-999,-99.99,,,-99.99,,2013-02-13 23:53:00,
2013-02-13 20:00:00,14.0,-99.9,-100.00,West,260,13.0,22.0,-999,-99.99,,,-99.99,,2013-02-14 03:00:00,
2013-02-13 20:32:00,14.0,-99.9,-100.00,West,260,13.0,22.0,-999,-99.99,,,-99.99,,2013-02-14 03:32:00,
2013-02-13 20:42:00,14.0,-99.9,-100.00,West,260,13.0,22.0,-999,-99.99,,,-99.99,,2013-02-14 03:42:00,
2013-02-13 20:52:00,14.0,-99.9,-100.00,West,260,13.0,22.0,-999,-99.99,,,-99.99,,2013-02-14 03:52:00,
2013-02-13 22:00:00,15.0,-99.9,-100.00,West,270,7.0,21.0,-999,-99.99,,,-99.99,,2013-02-14 05:00:00,
2013-02-13 22:32:00,15.0,-99.9,-100.00,West,270,7.0,21.0,-999,-99.99,,,-99.99,,2013-02-14 05:32:00,
2013-02-13 22:42:00,15.0,-99.9,-100.00,West,270,7.0,21.0,-999,-99.99,,,-99.99,,2013-02-14 05:42:00,
2013-02-13 22:52:00,15.0,-99.9,-100.00,West,270,7.0,21.0,-999,-99.99,,,-99.99,,2013-02-14 05:52:00,